« Back
NWS Peachtree City, Ga » Text Product » GA Regional Weather Roundup


Printer-friendly Version
Current Version              Previous Versions:   1  2  3  4  5  6  7  8  9  

Regional Weather Roundup

971
ASUS42 KFFC 311903
RWRGA
WEATHER ROUNDUP FOR GEORGIA
NATIONAL WEATHER SERVICE PEACHTREE CITY GA
300 PM EDT TUE MAY 31 2016

NOTE: "FAIR" INDICATES FEW OR NO CLOUDS BELOW 12,000 FEET WITH NO
SIGNIFICANT WEATHER AND/OR OBSTRUCTIONS TO VISIBILITY.

* = USE WITH CAUTION. THE STATIONS MARKED WITH AN ASTERISK MAY NOT
REPORT WEATHER SUCH AS PRECIPITATION, FOG, OR THUNDER AND ARE NOT
QUALITY CONTROLLED BY NWS.

THE REMARK "TC" DENOTES TEMPERATURE READING IN DEGREES CELSIUS.

GAZ001>058-312000-
NORTH GEORGIA

CITY           SKY/WX    TMP DP  RH WIND       PRES   REMARKS
ATLANTA        PTSUNNY   89  57  33 CALM      29.95F
ATHENS         MOSUNNY   90  63  40 VRB3      29.94F HX  91
CHAMBLEE       SUNNY     91  42  18 NW8       29.95F
PEACHTREE CITY SUNNY     91  61  36 VRB5      29.94F HX  91
ROME           MOSUNNY   91  59  33 SW7       29.93F HX  90
WEST ATLANTA   SUNNY     90  60  36 W8        29.94F
GAINESVILLE    PTSUNNY   84  62  47 E5        29.98F
CARTERSVILLE   SUNNY     90  59  35 VRB5      29.95F


CITY           SKY/WX    TMP DP  RH WIND       PRES   REMARKS
DALTON*        SUNNY     88  61  40 E3        29.95F
LAWRENCEVILLE* PTSUNNY   90  66  45 SE5       29.96F HX  92
KENNESAW*      MOSUNNY   90  59  35 NW8       29.89F
CANTON*        MOSUNNY   88  43  20 CALM      29.98F
BLAIRSVILLE*     N/A    N/A N/A N/A MISG      29.99F
$$

GAZ059>098-102>109-312000-
CENTRAL GEORGIA

CITY           SKY/WX    TMP DP  RH WIND       PRES   REMARKS
AUGUSTA-BUSH   MOSUNNY   88  66  48 CALM      29.91F HX  90
AUGUSTA-DANIEL CLOUDY    88  66  48 VRB5      29.94F HX  90
COLUMBUS       SUNNY     93  57  29 NW9       29.91F HX  91
MACON          MOSUNNY   94  64  37 NE8       29.91F HX  95
ROBINS AFB     MOSUNNY   93  65  39 N8        29.91F HX  96


CITY           SKY/WX    TMP DP  RH WIND       PRES   REMARKS
LAGRANGE*      SUNNY     93  65  39 N7        29.93F HX  96
SYLVANIA*      MOSUNNY   88  71  57 NE3       29.93F HX  94
MILLEDGEVILLE* SUNNY     90  64  43 CALM      29.93F HX  91
$$

GAZ099>101-110>166-312000-
SOUTH GEORGIA

CITY           SKY/WX    TMP DP  RH WIND       PRES   REMARKS
SAVANNAH       MOSUNNY   90  69  50 N5        29.91F HX  94
VALDOSTA       MOSUNNY   92  63  38 S3        29.90F HX  93
ALMA           MOSUNNY   93  63  36 CALM      29.90F HX  94
ST SIMONS      SUNNY     83  73  72 E14       29.91F
ALBANY         MOSUNNY   96  59  29 NW8       29.92F HX  95
HUNTER AFB     DRIZZLE   84  75  74 VRB6      29.89F HX  92
MOODY AFB      MOSUNNY   95  58  29 W9        29.89F HX  93
BRUNSWICK      SUNNY     91  73  55 E12       29.91F HX 100


CITY           SKY/WX    TMP DP  RH WIND       PRES   REMARKS
BAINBRIDGE*    SUNNY     97  63  32 W5        29.91F HX  98
MOULTRIE*      SUNNY     95  59  30 W3        29.92F HX  94
VIDALIA*       SUNNY     91  66  43 N5        29.92F HX  94
WAYCROSS*      MOSUNNY   94  64  37 CALM      29.89F HX  95
DOUGLAS*       MOSUNNY   95  57  28 W5        29.92F HX  94
$$




USA.gov is the U.S. government's official web portal to all federal, state and local government web resources and services.